Date,TemperatureHighF,TemperatureAvgF,TemperatureLowF,DewpointHighF,DewpointAvgF,DewpointLowF,HumidityHigh,HumidityAvg,HumidityLow,PressureMaxIn,PressureMinIn,WindSpeedMaxMPH,WindSpeedAvgMPH,GustSpeedMaxMPH,PrecipitationSumIn
2013-1-1,42,38,34,29,27,23,78,65,52,29.99,29.88,19,1,19,0.08
2013-1-2,35,31,26,28,18,12,78,59,43,30.20,29.97,14,2,18,0.00
2013-1-3,39,29,17,19,16,12,85,58,40,30.22,30.10,18,1,18,0.00
2013-1-4,41,35,31,22,19,18,62,53,42,30.17,30.09,25,5,26,0.00
2013-1-5,34,34,34,24,23,22,66,66,65,30.14,30.13,4,1,4,0.00
2013-1-6,45,39,30,30,26,22,75,60,46,30.14,29.99,14,1,15,0.00
2013-1-7,40,35,24,30,24,20,84,65,51,30.42,30.11,18,2,18,0.00
2013-1-8,54,37,21,32,26,18,92,68,33,30.39,30.29,7,1,8,0.00
2013-1-9,54,37,26,44,30,23,98,80,44,30.38,30.20,23,1,24,0.00
2013-1-10,47,46,44,31,29,28,54,53,52,30.42,30.37,23,4,25,0.00
2013-1-11,47,43,39,42,37,28,99,81,55,30.33,30.05,14,1,14,0.05
2013-1-12,56,46,40,52,44,40,100,95,79,30.13,30.04,6,0,6,0.01
2013-1-13,61,52,42,56,49,42,100,91,77,30.05,29.88,16,1,17,0.00
2013-1-14,63,49,37,58,42,32,95,77,59,30.28,29.88,21,2,23,0.34
2013-1-15,38,36,33,36,34,30,98,91,76,30.32,30.11,7,0,7,0.65
2013-1-16,40,35,32,39,35,31,100,98,95,30.13,29.82,27,2,27,0.55
2013-1-17,41,37,33,38,28,23,96,71,51,30.10,29.95,12,1,13,0.00
2013-1-18,37,32,26,27,15,7,74,49,29,30.45,30.05,26,4,26,0.00
2013-1-19,58,42,31,25,21,17,63,46,26,30.32,29.87,25,6,28,0.00
2013-1-20,55,44,32,30,17,6,55,35,16,30.04,29.77,32,6,32,0.00
2013-1-21,42,31,23,18,14,8,63,49,27,30.05,29.77,25,2,29,0.00
2013-1-22,23,16,11,8,-4,-8,58,41,28,30.27,29.93,28,5,29,0.00
2013-1-23,23,18,10,11,-1,-4,72,44,30,30.32,30.08,23,2,25,0.00
2013-1-24,26,18,13,12,5,-4,85,59,33,30.51,30.05,28,2,28,0.03
2013-1-25,21,16,12,15,7,-3,86,66,49,30.50,30.04,13,1,15,0.00
2013-1-26,32,28,18,25,20,14,86,70,58,30.42,30.04,13,2,13,0.06
2013-1-27,35,28,17,20,16,10,79,62,49,30.56,30.42,11,1,11,0.04
2013-1-28,52,38,27,46,34,20,97,86,73,30.42,30.01,23,3,25,0.17
2013-1-29,70,60,49,54,50,45,92,72,55,30.06,29.86,16,2,16,0.00
2013-1-30,71,59,54,59,54,48,100,85,62,29.86,29.18,40,4,40,1.43
2013-1-31,54,36,27,54,22,9,100,58,41,29.86,29.12,47,8,47,0.13
2013-2-1,28,22,13,22,7,0,86,55,40,30.37,29.78,32,5,36,0.00
2013-2-2,27,19,7,18,9,0,84,67,50,30.37,29.98,19,1,19,0.00
2013-2-3,33,27,21,28,21,10,91,78,53,29.98,29.78,24,2,24,0.01
2013-2-4,37,30,22,26,16,9,84,57,39,30.05,29.84,30,3,30,0.00
2013-2-5,37,32,29,34,30,25,96,90,81,29.90,29.80,6,0,6,0.01
2013-2-6,38,34,26,34,27,21,97,76,60,30.32,29.89,18,2,18,0.00
2013-2-7,38,31,22,26,23,19,89,71,56,30.39,30.15,18,2,18,0.00
2013-2-8,40,35,30,36,29,19,92,79,62,30.16,29.76,36,3,36,0.02
2013-2-9,40,32,27,20,16,10,71,52,30,30.33,29.94,34,6,35,0.00
2013-2-10,40,39,39,24,19,17,54,43,40,30.23,30.13,14,3,14,0.00
2013-2-11,67,52,35,49,34,19,98,59,19,30.14,29.64,35,6,35,0.09
2013-2-12,55,47,39,28,22,18,51,38,25,29.93,29.80,32,4,32,0.00
2013-2-13,43,35,26,31,28,19,93,76,48,29.90,29.64,12,0,12,0.01
2013-2-14,50,38,29,32,27,23,95,67,41,29.97,29.75,19,2,19,0.15
2013-2-15,55,40,31,34,30,23,89,68,39,30.00,29.90,16,2,16,0.02
2013-2-16,36,32,25,29,20,10,84,62,46,29.96,29.85,18,2,18,0.00
2013-2-17,28,23,20,16,8,2,83,54,38,30.20,29.85,32,5,33,0.01
2013-2-18,43,30,16,20,9,3,62,42,24,30.35,30.05,22,2,22,0.00
2013-2-19,53,42,34,38,28,17,86,58,42,30.05,29.61,35,9,35,0.03
2013-2-20,34,28,21,18,11,5,56,49,38,30.16,29.80,35,6,35,0.00
2013-2-21,36,27,21,15,12,6,64,53,39,30.31,30.11,25,4,25,0.00
2013-2-22,31,29,24,26,22,14,82,74,61,30.34,30.13,17,2,17,0.00
2013-2-23,49,38,31,39,32,26,93,81,65,30.14,29.80,8,1,9,0.00
2013-2-24,49,36,28,37,26,16,98,69,37,30.10,29.77,25,3,25,0.00
2013-2-25,44,34,24,22,19,16,77,55,37,30.19,30.10,12,1,12,0.00
2013-2-26,35,30,25,28,22,18,79,71,66,30.17,30.09,9,1,9,0.02
2013-2-27,49,44,40,33,31,30,74,61,51,29.66,29.60,18,1,18,0.03
2013-2-28,42,38,35,33,27,24,75,63,49,29.70,29.59,20,3,24,0.00
2013-3-1,39,36,31,28,24,21,71,63,50,29.89,29.70,19,3,19,0.00
2013-3-2,34,30,27,21,18,16,68,62,52,29.88,29.80,19,3,24,0.00
2013-3-3,38,31,26,20,16,13,69,55,38,29.93,29.82,26,5,26,0.00
2013-3-4,40,33,24,16,14,10,63,46,30,30.02,29.92,28,5,30,0.00
2013-3-5,47,39,31,31,18,14,92,44,27,30.04,29.74,19,3,19,0.00
2013-3-6,38,34,31,34,31,28,99,88,69,30.02,29.65,21,2,21,0.47
2013-3-7,46,39,35,28,27,24,75,62,48,30.17,30.01,20,3,27,0.35
2013-3-8,43,37,33,28,26,23,77,63,51,30.31,30.15,25,5,27,0.00
2013-3-9,55,42,31,26,22,15,74,47,22,30.36,30.22,16,1,16,0.00
2013-3-10,62,46,27,31,25,20,83,47,26,30.26,30.11,19,3,21,0.00
2013-3-11,56,48,36,48,33,22,80,60,34,30.12,29.78,22,2,22,0.00
2013-3-12,56,49,38,51,40,25,92,74,52,29.95,29.70,25,5,28,0.51
2013-3-13,39,38,36,26,24,21,60,57,55,29.95,29.91,17,3,18,0.00
2013-3-14,42,38,35,18,16,14,47,39,32,30.09,30.03,31,6,31,0.00
2013-3-15,60,45,30,33,24,15,57,45,28,30.07,29.74,23,3,23,0.00
2013-3-16,54,44,35,43,35,32,88,71,55,29.90,29.58,12,2,12,0.00
2013-3-17,37,35,34,32,26,22,89,71,55,30.22,29.88,11,1,11,0.00
2013-3-18,35,31,29,31,29,23,97,91,62,30.26,29.83,17,2,17,0.05
2013-3-19,57,42,32,42,23,6,100,58,17,29.91,29.69,36,5,42,0.35
2013-3-20,52,41,32,28,14,8,79,36,19,29.94,29.73,31,5,32,0.00
2013-3-21,32,31,30,26,22,17,78,67,58,29.81,29.78,14,2,16,0.00
2013-3-24,31,31,31,29,29,29,93,93,93,29.60,29.56,0,0,0,0.00
2013-3-25,41,34,30,34,31,29,96,89,69,29.69,29.49,15,0,15,0.51
2013-3-26,49,38,32,31,28,24,89,68,45,29.99,29.68,23,3,23,0.09
2013-3-27,46,39,34,34,27,22,73,62,44,30.10,29.98,23,4,25,0.00
2013-3-28,45,39,36,29,27,24,72,61,51,30.21,30.06,26,4,26,0.00
2013-3-29,56,48,36,30,25,21,72,41,27,30.21,30.11,21,3,21,0.00
2013-3-30,59,47,30,28,21,16,72,40,21,30.20,30.05,15,1,16,0.00
2013-3-31,48,43,38,46,37,22,96,81,48,30.06,29.71,13,1,13,0.23
2013-4-1,58,46,34,44,34,14,96,64,40,29.97,29.71,28,4,32,0.00
2013-4-2,46,38,30,16,12,8,47,34,23,30.16,29.96,25,4,28,0.00
2013-4-3,49,37,27,18,13,8,55,38,20,30.36,30.15,26,3,26,0.00
2013-4-4,49,36,20,30,13,8,72,40,19,30.38,29.98,18,3,18,0.00
2013-4-5,65,49,33,36,27,11,93,49,22,30.07,29.79,23,3,23,0.00
2013-4-6,56,44,29,24,18,12,69,37,18,30.28,30.03,18,2,19,0.00
2013-4-7,71,56,38,42,35,23,69,46,28,30.17,29.89,33,8,39,0.00
2013-4-8,80,68,51,47,43,40,72,42,24,30.01,29.86,22,4,25,0.00
2013-4-9,87,75,64,55,50,44,57,42,26,30.02,29.86,23,4,23,0.00
2013-4-10,92,83,64,56,52,49,57,35,24,29.90,29.70,25,4,25,0.00
2013-4-11,84,76,58,59,55,50,85,49,37,29.82,29.63,19,4,19,0.00
2013-4-12,70,58,51,63,52,36,100,81,39,29.74,29.51,25,3,25,0.55
2013-4-13,69,58,46,37,31,22,64,38,22,29.92,29.74,25,4,25,0.00
2013-4-14,66,54,37,38,34,27,79,48,28,30.10,29.91,16,2,16,0.00
2013-4-15,64,58,54,51,45,36,79,62,49,30.19,30.04,23,4,23,0.00
2013-4-17,69,65,57,63,58,54,100,78,69,30.16,30.11,13,3,13,0.11
2013-4-18,62,62,62,56,55,54,80,79,76,30.15,30.13,13,1,13,0.00
2013-4-22,55,49,33,34,32,28,84,52,38,30.53,30.35,18,4,18,0.00
2013-4-23,57,46,32,44,37,28,91,72,58,30.36,30.06,12,2,13,0.00
2013-4-24,78,59,40,58,48,37,99,69,38,30.06,29.70,32,4,32,0.04
2013-4-25,62,53,44,40,30,20,67,43,25,30.27,30.01,24,3,24,0.00
2013-4-26,65,53,38,37,33,27,84,49,25,30.42,30.26,16,2,16,0.00
2013-4-27,69,54,35,44,37,31,93,58,31,30.37,30.20,16,2,16,0.00
2013-4-28,57,51,44,49,44,38,92,78,55,30.20,30.06,20,2,20,0.12
2013-4-29,60,55,52,55,52,46,96,89,78,30.07,29.97,14,2,14,0.00
2013-4-30,58,55,53,56,53,52,99,94,85,30.25,30.05,11,2,12,0.01
2013-5-1,68,58,50,52,41,31,94,59,26,30.36,30.25,14,2,14,0.00
2013-5-2,67,54,38,46,42,35,95,65,40,30.38,30.26,16,2,16,0.00
2013-5-3,67,55,39,49,42,36,97,64,40,30.34,30.22,19,3,19,0.00
2013-5-4,66,53,38,45,41,33,94,66,38,30.28,30.12,17,3,19,0.00
2013-5-5,62,52,38,42,39,34,92,64,43,30.19,30.08,17,3,17,0.00
2013-5-6,50,46,42,49,43,37,96,89,78,30.13,30.09,8,1,9,0.00
2013-5-7,60,58,54,60,58,54,100,100,100,29.96,29.88,16,4,16,1.54
2013-5-8,65,56,48,59,53,47,100,92,67,29.96,29.88,19,1,21,0.41
2013-5-9,75,61,46,62,53,45,100,78,48,29.98,29.87,17,1,17,0.00
2013-5-10,84,68,50,64,57,49,99,72,37,29.96,29.81,27,2,27,0.21
2013-5-11,74,64,59,68,60,50,100,87,60,29.82,29.68,17,2,17,0.09
2013-5-12,60,54,44,51,34,25,78,48,28,30.00,29.73,30,4,30,0.00
2013-5-13,58,49,39,31,27,21,70,44,24,30.14,29.98,25,3,26,0.00
2013-5-14,66,51,29,40,33,25,94,53,26,30.19,29.96,15,1,15,0.00
2013-5-15,89,71,45,65,51,38,91,55,26,29.96,29.63,23,3,24,0.00
2013-5-16,79,78,76,51,50,48,41,37,34,29.70,29.68,25,6,25,0.00
2013-5-20,80,72,63,69,66,62,100,81,60,30.05,29.91,12,1,12,0.16
2013-5-21,88,75,60,71,66,58,99,76,49,29.93,29.79,14,1,16,0.00
2013-5-22,89,77,64,70,65,60,97,70,39,29.87,29.76,24,2,24,0.99
2013-5-23,77,69,62,71,65,61,100,88,65,29.83,29.69,14,2,14,0.11
2013-5-24,62,51,44,61,40,31,96,68,53,30.17,29.72,30,3,30,0.01
2013-5-25,62,52,40,39,34,29,69,51,35,30.20,30.08,30,4,30,0.00
2013-5-26,70,58,45,40,35,30,71,44,23,30.19,30.09,19,2,20,0.00
2013-5-27,66,56,38,54,45,35,96,69,40,30.24,30.14,15,1,15,0.00
2013-5-28,80,66,51,68,59,48,99,79,58,30.14,29.98,12,1,12,0.02
2013-5-29,89,77,62,69,63,59,97,66,41,30.06,29.99,19,2,19,0.00
2013-5-30,89,75,60,72,64,58,98,72,44,30.12,30.02,13,0,14,0.01
2013-5-31,89,78,60,67,62,57,98,61,38,30.09,29.94,15,2,15,0.00
2013-6-1,89,80,67,71,66,62,88,62,45,29.97,29.82,18,3,18,0.00
2013-6-2,75,71,68,69,64,60,92,78,67,29.83,29.77,18,4,18,0.37
2013-6-3,76,69,60,68,62,52,99,78,63,29.95,29.79,12,1,12,0.16
2013-6-4,73,63,50,53,48,42,90,60,38,30.10,29.94,13,1,15,0.00
2013-6-5,76,64,47,59,54,45,98,72,45,30.13,29.97,15,2,16,0.00
2013-6-6,67,63,60,64,59,50,100,87,66,29.98,29.80,15,2,15,0.65
2013-6-7,66,64,63,66,64,62,100,100,99,29.80,29.61,10,1,17,0.27
2013-6-8,76,68,60,64,60,55,99,76,59,30.06,29.71,14,1,14,0.00
2013-6-9,76,68,58,69,63,56,99,84,64,30.14,30.03,12,1,12,0.00
2013-6-10,77,69,64,74,68,63,100,97,80,30.04,29.73,22,2,22,1.59
2013-6-11,64,62,62,64,62,61,99,99,97,29.78,29.74,10,2,10,0.00
2013-6-15,80,72,58,59,53,47,81,54,33,30.02,29.94,13,1,14,0.35
2013-6-16,81,72,57,68,62,52,89,69,58,29.99,29.85,16,2,16,0.00
2013-6-17,86,75,64,70,65,59,93,72,52,29.91,29.82,9,1,10,0.00
2013-6-18,73,69,64,70,66,62,99,91,81,29.85,29.75,12,0,12,0.93
2013-6-19,74,67,60,63,60,56,97,78,55,30.10,29.84,10,1,10,0.00
2013-6-20,78,68,58,67,61,56,100,80,60,30.18,30.09,16,2,17,0.00
2013-6-21,82,72,56,66,60,53,96,67,49,30.22,30.15,13,1,15,0.00
2013-6-22,86,76,58,68,63,55,97,68,45,30.17,30.05,14,2,15,0.00
2013-6-23,85,75,62,72,66,60,99,76,55,30.13,30.01,7,0,10,0.00
2013-6-24,90,76,65,74,68,62,96,79,42,30.11,29.97,31,1,32,0.96
2013-6-25,90,78,66,75,69,59,99,75,51,29.98,29.83,20,1,20,0.00
2013-6-26,89,76,64,75,67,59,96,77,53,29.87,29.77,13,1,18,0.07
2013-6-27,86,75,68,73,67,64,96,76,63,29.77,29.57,17,2,20,0.06
2013-6-28,86,75,67,74,65,60,95,72,51,29.58,29.42,24,2,24,0.00
2013-6-29,85,75,64,69,63,58,94,68,42,29.65,29.47,27,1,27,0.08
2013-6-30,86,73,62,73,67,61,100,84,58,29.78,29.64,17,1,17,0.01
2013-7-1,81,74,67,73,69,66,99,85,66,29.89,29.77,16,2,16,0.04
2013-7-2,84,75,68,74,70,66,99,83,63,30.08,29.89,24,2,24,0.00
2013-7-3,83,75,69,74,70,67,98,86,69,30.16,30.06,16,1,16,0.00
2013-7-4,89,80,68,77,71,66,100,76,55,30.17,30.09,20,3,21,0.09
2013-7-5,88,80,68,74,70,66,98,73,55,30.15,30.04,22,3,22,0.00
2013-7-6,90,81,68,75,70,65,96,71,48,30.12,29.98,18,2,18,0.00
2013-7-7,89,77,67,74,69,65,96,77,55,30.04,29.96,13,1,14,0.12
2013-7-8,85,75,64,74,67,63,100,79,52,30.06,29.98,12,1,14,0.00
2013-7-9,83,75,68,73,69,64,97,82,66,30.05,29.93,17,2,17,0.00
2013-7-10,84,76,70,75,71,65,96,84,64,29.95,29.80,18,2,18,0.06
2013-7-11,73,70,69,66,65,64,88,83,76,29.82,29.80,6,0,6,0.00
2013-7-12,71,69,66,68,66,64,96,91,86,30.03,29.97,6,0,7,0.68
2013-7-13,81,72,65,71,68,64,100,87,66,30.20,30.01,10,1,10,0.01
2013-7-14,88,79,68,75,70,67,100,76,53,30.27,30.20,19,1,19,0.03
2013-7-15,90,80,64,74,69,63,99,73,48,30.26,30.14,11,0,11,0.00
2013-7-16,91,80,69,76,71,68,99,75,53,30.22,30.13,10,1,10,0.00
2013-7-17,92,82,72,77,72,69,96,74,50,30.18,30.04,11,1,13,0.00
2013-7-18,94,84,72,78,74,70,98,72,49,30.07,29.94,9,0,10,0.00
2013-7-19,93,80,69,78,72,67,99,79,51,29.95,29.82,13,1,22,0.20
2013-7-20,91,79,68,77,70,66,99,79,50,29.85,29.74,17,1,17,0.00
2013-7-21,86,76,68,74,69,66,98,79,55,29.89,29.82,14,0,14,0.00
2013-7-22,86,74,66,74,70,65,99,88,59,29.89,29.70,22,1,26,1.41
2013-7-25,74,68,57,60,55,51,89,64,45,30.02,29.95,12,1,13,0.15
2013-7-26,80,68,51,62,56,49,99,70,41,30.06,29.96,7,0,9,0.00
2013-7-27,79,69,61,71,65,58,99,87,70,29.98,29.85,16,1,19,0.00
2013-7-28,80,72,62,70,66,59,97,81,57,29.95,29.81,13,0,15,0.06
2013-7-29,79,68,55,61,56,52,95,67,43,30.13,29.95,11,1,14,0.00
2013-7-30,80,70,54,66,59,52,97,70,48,30.19,30.09,10,0,10,0.00
2013-7-31,77,67,59,67,63,57,99,87,65,30.10,29.94,17,0,18,0.25
2013-8-1,82,72,64,72,66,61,100,84,59,29.95,29.76,14,0,17,0.00
2013-8-2,84,73,60,68,62,57,99,71,44,29.92,29.83,13,1,15,0.00
2013-8-3,74,68,63,70,64,58,97,87,65,29.93,29.88,11,0,15,0.19
2013-8-4,77,68,60,65,58,52,100,74,45,30.00,29.90,17,1,19,0.01
2013-8-5,79,68,60,63,55,50,84,66,38,30.07,29.96,11,0,11,0.01
2013-8-6,75,67,60,67,63,56,100,88,70,30.01,29.93,8,0,8,0.87
2013-8-7,81,73,67,72,69,65,98,88,69,30.00,29.92,14,1,14,0.37
2013-8-8,80,73,67,75,71,66,100,92,78,29.97,29.89,14,1,14,0.07
2013-8-9,84,77,72,78,72,68,100,87,72,29.92,29.83,18,1,18,0.07
2013-8-10,80,73,67,70,66,60,97,81,52,30.04,29.91,6,0,10,0.01
2013-8-11,84,73,65,71,67,63,99,81,54,30.06,29.94,10,0,11,0.00
2013-8-12,85,76,64,72,66,63,100,75,49,29.98,29.84,13,1,14,0.00
2013-8-13,83,73,66,73,67,58,99,82,59,29.84,29.69,14,1,17,0.43
2013-8-14,70,63,53,58,51,48,87,65,49,30.08,29.80,20,2,20,0.00
2013-8-15,73,64,52,56,50,46,93,63,39,30.15,30.06,10,0,10,0.00
2013-8-16,78,66,48,61,54,46,99,68,45,30.15,30.09,12,0,12,0.00
2013-8-17,76,67,50,63,57,48,100,73,54,30.23,30.14,10,1,10,0.00
2013-8-18,67,63,60,63,60,58,99,91,76,30.22,30.13,10,0,10,0.30
2013-8-19,77,69,58,70,65,57,100,88,74,30.14,30.01,5,0,6,0.00
2013-8-20,83,71,59,71,63,58,100,78,50,30.13,30.05,9,0,10,0.00
2013-8-21,86,74,60,74,67,59,99,82,55,30.15,30.01,13,1,13,0.00
2013-8-22,84,75,65,72,66,62,100,73,56,30.04,29.89,13,1,13,0.00
2013-8-23,71,69,59,68,66,57,96,90,81,30.10,29.89,12,0,12,0.46
2013-8-24,78,66,56,65,58,48,100,77,37,30.29,30.09,9,0,9,0.01
2013-8-25,80,68,51,64,58,49,100,73,47,30.36,30.20,14,1,14,0.00
2013-8-26,85,73,57,66,62,55,98,70,45,30.22,29.96,13,1,14,0.00
2013-8-27,84,78,69,72,68,62,81,70,63,29.96,29.84,12,1,16,0.00
2013-8-28,74,72,69,74,70,67,99,96,80,29.88,29.74,10,0,14,0.39
2013-8-29,81,73,66,72,69,64,100,88,63,29.97,29.80,7,0,7,0.00
2013-8-30,87,75,61,73,66,60,100,77,49,29.97,29.80,19,1,20,0.00
2013-8-31,87,75,69,74,69,67,97,85,56,29.82,29.78,13,1,14,0.00
2013-9-4,78,66,60,58,56,51,86,72,39,30.02,29.97,7,0,7,0.00
2013-9-5,80,70,58,63,57,52,90,66,46,30.03,29.99,20,2,20,0.00
2013-9-6,72,65,50,51,48,45,83,56,39,30.23,30.09,12,1,15,0.00
2013-9-7,80,63,46,59,50,43,99,67,28,30.11,29.90,12,0,12,0.00
2013-9-8,85,72,58,66,62,53,97,72,49,30.00,29.83,18,1,18,0.01
2013-9-9,77,67,59,64,57,49,92,70,50,30.15,29.99,12,1,16,0.00
2013-9-10,92,78,62,72,68,61,99,75,47,30.11,30.01,14,1,14,0.00
2013-9-11,75,72,70,70,68,67,90,87,84,30.07,30.05,3,0,3,0.00
2013-9-13,75,62,55,53,50,46,74,66,37,29.93,29.74,17,2,18,0.00
2013-9-14,64,54,44,47,43,40,96,68,45,30.14,29.92,18,1,18,0.00
2013-9-15,76,60,40,56,49,37,100,71,44,30.18,30.02,19,1,19,0.00
2013-9-16,67,61,55,60,55,50,98,82,61,30.20,29.97,10,1,10,0.10
2013-9-17,64,56,42,53,42,32,93,64,30,30.39,30.20,11,1,11,0.00
2013-9-18,71,53,35,50,42,32,99,71,40,30.30,30.13,14,1,17,0.00
2013-9-19,77,66,46,59,55,44,99,69,50,30.14,30.01,14,1,15,0.00
2013-9-20,80,66,51,64,58,49,99,77,52,30.03,29.87,16,1,16,0.00
2013-9-21,70,64,58,65,62,58,98,93,77,29.87,29.63,17,2,17,0.54
2013-9-22,71,58,48,59,52,44,100,84,47,29.94,29.69,15,1,15,0.02
2013-9-23,62,53,44,48,44,40,97,73,51,30.07,29.94,13,1,14,0.00
2013-9-24,70,52,36,52,44,34,100,75,42,30.10,29.92,13,1,13,0.00
2013-9-25,54,44,40,53,41,38,100,92,84,29.96,29.89,3,0,3,0.00
2013-9-26,72,57,45,52,47,43,99,73,40,29.99,29.89,11,1,11,0.00
2013-10-7,66,58,53,64,50,43,97,75,55,30.04,29.71,19,2,20,0.93
2013-10-8,66,56,44,47,43,40,92,63,41,30.26,30.03,15,1,15,0.00
2013-10-9,46,44,43,41,40,40,89,87,82,30.26,30.24,1,0,1,0.00
2013-10-11,58,57,55,58,57,55,100,100,100,30.00,29.96,13,1,13,1.21
2013-10-12,61,59,56,61,59,56,100,100,100,30.15,29.97,7,1,13,0.59
2013-10-13,57,56,55,57,56,55,100,100,100,30.28,30.14,9,0,9,0.73
2013-10-14,63,56,52,57,54,50,100,92,75,30.30,30.19,6,0,7,0.00
2013-10-15,70,58,46,60,51,45,100,80,47,30.20,30.03,9,0,11,0.00
2013-10-16,70,59,48,59,54,46,100,85,61,30.03,29.85,16,1,18,0.00
2013-10-17,74,62,55,65,58,45,100,87,62,29.85,29.65,22,2,22,0.04
2013-10-18,65,56,41,45,40,37,86,58,37,29.97,29.82,16,2,18,0.00
2013-10-19,61,49,37,52,43,36,99,81,58,29.97,29.73,23,2,24,0.01
2013-10-20,62,50,39,38,34,32,80,57,34,30.05,29.87,20,2,20,0.00
2013-10-21,39,34,32,39,32,30,98,90,79,30.10,30.05,1,0,1,0.00
2013-10-31,69,64,60,58,57,56,91,78,65,29.95,29.59,21,3,21,0.01
2013-11-1,75,65,56,60,50,39,88,61,31,29.63,29.45,33,4,33,0.23
2013-11-2,48,47,46,37,36,36,67,65,62,29.87,29.84,17,2,17,0.00
2013-11-3,48,46,44,38,37,34,75,70,61,30.13,29.85,14,2,16,0.00
2013-11-6,70,62,49,51,48,44,87,62,44,30.31,29.95,31,7,31,0.00
2013-11-7,59,52,40,53,41,22,92,68,47,30.05,29.82,25,4,30,0.09
2013-11-8,49,40,28,28,23,20,76,53,37,30.29,30.04,25,3,25,0.00
2013-11-9,56,42,24,30,25,20,91,55,31,30.30,29.97,28,4,28,0.00
2013-11-10,58,51,46,34,31,24,55,46,31,29.97,29.93,24,5,24,0.00
2013-11-14,33,32,30,17,17,16,58,54,52,30.18,30.16,1,0,1,0.00
2013-11-15,63,43,25,30,19,11,77,45,14,30.24,30.12,12,1,13,0.00
2013-11-16,60,52,49,48,47,44,96,84,61,30.24,30.14,13,2,14,0.00
2013-11-17,62,56,48,57,52,48,100,89,74,30.15,29.61,32,3,32,0.02
2013-11-18,64,57,46,58,30,23,90,38,22,29.90,29.61,31,6,31,0.04
2013-11-19,46,43,41,26,24,23,50,48,42,29.97,29.90,26,6,26,0.00
2013-11-20,43,36,30,25,20,17,77,53,35,30.52,30.43,7,1,10,0.00
2013-11-21,48,36,24,38,30,22,97,82,63,30.53,30.30,12,1,13,0.00
2013-11-22,62,51,42,52,44,36,89,77,61,30.31,29.98,17,1,19,0.00
2013-11-23,50,38,26,42,24,11,77,57,40,30.20,30.02,29,4,29,0.00
2013-11-24,30,23,19,14,4,0,68,44,28,30.50,30.19,32,5,32,0.00
2013-11-25,32,21,12,10,6,3,80,54,33,30.52,30.47,17,2,18,0.00
2013-11-26,33,32,32,33,32,31,100,100,99,29.99,29.63,10,1,10,1.13
2013-11-27,37,33,25,37,27,11,100,80,54,30.04,29.54,25,5,30,0.06
2013-11-28,25,25,25,12,12,11,56,56,55,30.05,30.03,20,6,20,0.00
2013-12-4,54,46,31,43,40,31,100,82,63,30.04,29.94,9,1,10,0.00
2013-12-5,70,58,41,59,52,41,100,83,57,29.99,29.83,26,4,26,0.02
2013-12-6,61,44,35,61,43,35,100,97,93,30.15,29.80,18,2,21,1.90
2013-12-7,38,32,26,35,27,18,99,80,65,30.52,30.13,20,1,20,0.00
2013-12-8,26,24,23,25,20,17,96,86,70,30.55,30.27,6,0,6,0.00
2013-12-9,37,32,26,36,31,25,99,97,89,30.28,29.99,10,0,13,0.25
2013-12-10,35,34,32,30,28,28,90,81,76,30.04,30.00,16,2,16,0.00
2013-12-11,38,30,21,18,14,10,74,53,33,30.35,30.20,11,1,12,0.11
2013-12-12,28,24,16,10,3,0,56,40,31,30.38,30.21,20,2,20,0.11
2013-12-13,43,30,15,20,12,3,73,47,28,30.25,30.16,16,2,18,0.07
2013-12-14,32,31,28,32,29,16,100,91,55,30.27,29.70,11,1,11,0.08
2013-12-15,41,34,31,37,28,20,100,79,58,29.90,29.62,28,4,30,0.24
2013-12-16,35,31,28,24,23,22,79,70,60,30.14,29.90,17,1,18,0.00
2013-12-17,42,33,28,32,27,23,97,81,65,30.09,29.88,19,0,19,0.01
2013-12-18,38,31,22,25,19,16,79,62,48,30.18,29.95,27,2,27,0.00
2013-12-19,61,43,22,30,23,17,81,48,28,30.16,30.00,13,2,18,0.00
2013-12-20,60,52,43,36,28,24,53,41,28,30.03,29.91,18,4,20,0.00
2013-12-21,65,54,51,46,40,36,62,58,46,29.93,29.84,24,5,24,0.00
2013-12-23,44,37,34,33,27,23,70,66,64,30.21,30.09,20,3,25,0.29
2013-12-24,39,28,18,24,15,4,79,58,41,30.47,30.17,25,3,25,0.00
2013-12-25,30,23,15,13,9,6,66,55,43,30.56,30.30,12,1,13,0.00
2013-12-26,44,33,22,25,15,11,71,49,35,30.32,30.19,27,2,27,0.00
2013-12-27,52,37,24,19,15,7,69,43,17,30.36,30.26,21,2,21,0.00
2013-12-28,62,44,30,25,21,17,62,42,20,30.28,30.05,19,3,21,0.00
2013-12-29,47,43,41,45,36,21,100,80,38,30.05,29.55,21,2,21,1.13
2014-1-2,29,28,28,27,26,26,94,93,90,29.66,29.62,16,0,16,0.00